Location: *
(40.9167°N, 9.5000°E)
Time: 01:34:52
(UTC+00:00)

Cosmos 1461 - Pass Details

Date: 09 April 2020
Orbit: 506 x 660 km, 65.0° (Epoch: 05 June)

Event Time Altitude Azimuth Distance (km) Brightness Sun altitude
Rises 18:57:45 0° 330° (NNW) 2,898 7.4 -12.0°
Reaches altitude 10° 19:00:01 10° 334° (NNW) 2,011 6.4 -12.4°
Maximum altitude 19:04:33 61° 56° (NE) 730 3.2 -13.2°
Enters shadow 19:07:43 20° 132° (SE) 1,504 4.5 -13.8°
